Location: *
(32.3300°N, 34.8500°E)
Time: 22:04:56
(UTC+00:00)

USA 267 - Pass Details

Date: 22 October 2019
Orbit: 1101 x 1106 km, 123.0° (Epoch: 12 November)

Event Time Altitude Azimuth Distance (km) Brightness Sun altitude
Rises 01:12:37 0° 34° (NE) 3,921 6.7 -33.7°
Reaches altitude 10° 01:15:16 10° 26° (NNE) 2,962 5.9 -33.1°
Enters shadow 01:19:28 32° 353° (N) 1,782 4.3 -32.3°
